Year,Month,Day,Hour,Minute,Value (Times are PST for temperature in C)
2015,06,26,00,00,18.40
2015,06,26,00,01,18.30
2015,06,26,00,02,18.30
2015,06,26,00,03,18.30
2015,06,26,00,04,18.30
2015,06,26,00,05,18.30
2015,06,26,00,06,18.30
2015,06,26,00,07,18.20
2015,06,26,00,08,18.20
2015,06,26,00,09,18.20
2015,06,26,00,10,18.20
2015,06,26,00,11,18.20
2015,06,26,00,12,18.20
2015,06,26,00,13,18.10
2015,06,26,00,14,18.10
2015,06,26,00,15,18.10
2015,06,26,00,16,18.10
2015,06,26,00,17,18.10
2015,06,26,00,18,18.00
2015,06,26,00,19,18.00
2015,06,26,00,20,18.00
2015,06,26,00,21,18.00
2015,06,26,00,22,17.90
2015,06,26,00,23,17.90
2015,06,26,00,24,17.90
2015,06,26,00,25,17.90
2015,06,26,00,26,17.90
2015,06,26,00,27,17.80
2015,06,26,00,28,17.80
2015,06,26,00,29,17.80
2015,06,26,00,30,17.80
2015,06,26,00,31,17.80
2015,06,26,00,32,17.80
2015,06,26,00,33,17.80
2015,06,26,00,34,17.70
2015,06,26,00,35,17.70
2015,06,26,00,36,17.70
2015,06,26,00,37,17.70
2015,06,26,00,38,17.70
2015,06,26,00,39,17.70
2015,06,26,00,40,17.70
2015,06,26,00,41,17.60
2015,06,26,00,44,17.60
2015,06,26,00,45,17.60
2015,06,26,00,46,17.50
2015,06,26,00,48,17.40
2015,06,26,00,49,17.40
2015,06,26,00,50,17.40
2015,06,26,00,51,17.40
2015,06,26,00,52,17.40
2015,06,26,00,53,17.40
2015,06,26,00,54,17.40
2015,06,26,00,55,17.30
2015,06,26,00,56,17.30
2015,06,26,00,57,17.30
2015,06,26,00,58,17.30
2015,06,26,00,59,17.30
2015,06,26,01,00,17.30
2015,06,26,01,01,17.20
2015,06,26,01,03,17.20
2015,06,26,01,04,17.20
2015,06,26,01,05,17.10
2015,06,26,01,06,17.10
2015,06,26,01,07,17.10
2015,06,26,01,08,17.10
2015,06,26,01,09,17.10
2015,06,26,01,10,17.10
2015,06,26,01,11,17.10
2015,06,26,01,12,17.10
2015,06,26,01,13,17.10
2015,06,26,01,14,17.00
2015,06,26,01,15,17.00
2015,06,26,01,16,17.00
2015,06,26,01,18,17.00
2015,06,26,01,19,16.90
2015,06,26,01,20,16.90
2015,06,26,01,21,16.90
2015,06,26,01,22,16.90
2015,06,26,01,23,16.90
2015,06,26,01,25,16.90
2015,06,26,01,26,16.90
2015,06,26,01,27,16.80
2015,06,26,01,28,16.80
2015,06,26,01,29,16.80
2015,06,26,01,30,16.80
2015,06,26,01,31,16.80
2015,06,26,01,32,16.80
2015,06,26,01,33,16.80
2015,06,26,01,34,16.80
2015,06,26,01,35,16.70
2015,06,26,01,36,16.70
2015,06,26,01,37,16.70
2015,06,26,01,38,16.70
2015,06,26,01,39,16.70
2015,06,26,01,40,16.70
2015,06,26,01,41,16.70
2015,06,26,01,42,16.70
2015,06,26,01,43,16.60
2015,06,26,01,44,16.60
2015,06,26,01,45,16.60
2015,06,26,01,46,16.60
2015,06,26,01,47,16.60
2015,06,26,01,48,16.60
2015,06,26,01,49,16.60
2015,06,26,01,50,16.60
2015,06,26,01,51,16.60
2015,06,26,01,52,16.50
2015,06,26,01,53,16.50
2015,06,26,01,54,16.50
2015,06,26,01,55,16.50
2015,06,26,01,56,16.50
2015,06,26,01,57,16.50
2015,06,26,01,58,16.40
2015,06,26,01,59,16.40
2015,06,26,02,00,16.40
2015,06,26,02,01,16.40
2015,06,26,02,03,16.40
2015,06,26,02,04,16.40
2015,06,26,02,05,16.40
2015,06,26,02,06,16.40
2015,06,26,02,07,16.40
2015,06,26,02,08,16.40
2015,06,26,02,09,16.30
2015,06,26,02,10,16.30
2015,06,26,02,11,16.30
2015,06,26,02,12,16.30
2015,06,26,02,13,16.30
2015,06,26,02,14,16.30
2015,06,26,02,15,16.30
2015,06,26,02,16,16.30
2015,06,26,02,17,16.30
2015,06,26,02,18,16.30
2015,06,26,02,19,16.30
2015,06,26,02,20,16.20
2015,06,26,02,21,16.20
2015,06,26,02,22,16.20
2015,06,26,02,23,16.20
2015,06,26,02,24,16.20
2015,06,26,02,25,16.20
2015,06,26,02,26,16.20
2015,06,26,02,27,16.20
2015,06,26,02,28,16.10
2015,06,26,02,29,16.10
2015,06,26,02,30,16.10
2015,06,26,02,31,16.10
2015,06,26,02,32,16.10
2015,06,26,02,33,16.00
2015,06,26,02,34,16.00
2015,06,26,02,35,16.00
2015,06,26,02,36,16.00
2015,06,26,02,37,15.90
2015,06,26,02,38,15.90
2015,06,26,02,39,15.90
2015,06,26,02,40,15.90
2015,06,26,02,41,15.90
2015,06,26,02,42,15.90
2015,06,26,02,43,15.80
2015,06,26,02,44,15.80
2015,06,26,02,45,15.80
2015,06,26,02,46,15.80
2015,06,26,02,47,15.80
2015,06,26,02,48,15.80
2015,06,26,02,49,15.80
2015,06,26,02,50,15.70
2015,06,26,02,51,15.70
2015,06,26,02,52,15.70
2015,06,26,02,53,15.70
2015,06,26,02,54,15.70
2015,06,26,02,55,15.70
2015,06,26,02,56,15.70
2015,06,26,02,57,15.60
2015,06,26,02,58,15.60
2015,06,26,02,59,15.60
2015,06,26,03,00,15.60
2015,06,26,03,01,15.60
2015,06,26,03,03,15.60
2015,06,26,03,04,15.60
2015,06,26,03,05,15.50
2015,06,26,03,06,15.50
2015,06,26,03,07,15.50
2015,06,26,03,08,15.40
2015,06,26,03,09,15.40
2015,06,26,03,10,15.40
2015,06,26,03,11,15.40
2015,06,26,03,12,15.40
2015,06,26,03,13,15.40
2015,06,26,03,14,15.40
2015,06,26,03,15,15.40
2015,06,26,03,16,15.40
2015,06,26,03,17,15.40
2015,06,26,03,18,15.40
2015,06,26,03,19,15.40
2015,06,26,03,20,15.40
2015,06,26,03,21,15.30
2015,06,26,03,22,15.30
2015,06,26,03,23,15.30
2015,06,26,03,24,15.30
2015,06,26,03,25,15.30
2015,06,26,03,26,15.30
2015,06,26,03,27,15.30
2015,06,26,03,28,15.30
2015,06,26,03,29,15.30
2015,06,26,03,31,15.30
2015,06,26,03,32,15.30
2015,06,26,03,33,15.30
2015,06,26,03,34,15.30
2015,06,26,03,35,15.30
2015,06,26,03,37,15.30
2015,06,26,03,38,15.30
2015,06,26,03,39,15.30
2015,06,26,03,40,15.30
2015,06,26,03,41,15.20
2015,06,26,03,42,15.20
2015,06,26,03,43,15.20
2015,06,26,03,44,15.20
2015,06,26,03,45,15.20
2015,06,26,03,46,15.20
2015,06,26,03,47,15.20
2015,06,26,03,49,15.20
2015,06,26,03,50,15.20
2015,06,26,03,51,15.20
2015,06,26,03,52,15.20
2015,06,26,03,53,15.20
2015,06,26,03,54,15.10
2015,06,26,03,55,15.10
2015,06,26,03,56,15.10
2015,06,26,03,57,15.10
2015,06,26,03,58,15.10
2015,06,26,03,59,15.10
2015,06,26,04,00,15.10
2015,06,26,04,01,15.10
2015,06,26,04,02,15.10
2015,06,26,04,03,15.10
2015,06,26,04,05,15.00
2015,06,26,04,06,15.00
2015,06,26,04,07,14.90
2015,06,26,04,08,14.90
2015,06,26,04,09,14.90
2015,06,26,04,10,14.90
2015,06,26,04,11,14.90
2015,06,26,04,12,14.90
2015,06,26,04,13,14.90
2015,06,26,04,14,14.90
2015,06,26,04,15,14.90
2015,06,26,04,16,14.90
2015,06,26,04,17,14.90
2015,06,26,04,18,14.90
2015,06,26,04,19,14.80
2015,06,26,04,20,14.80
2015,06,26,04,21,14.80
2015,06,26,04,22,14.80
2015,06,26,04,23,14.80
2015,06,26,04,24,14.80
2015,06,26,04,25,14.80
2015,06,26,04,26,14.80
2015,06,26,04,27,14.80
2015,06,26,04,28,14.80
2015,06,26,04,29,14.80
2015,06,26,04,30,14.80
2015,06,26,04,31,14.80
2015,06,26,04,32,14.80
2015,06,26,04,33,14.70
2015,06,26,04,34,14.70
2015,06,26,04,35,14.70
2015,06,26,04,36,14.70
2015,06,26,04,37,14.70
2015,06,26,04,39,14.70
2015,06,26,04,40,14.70
2015,06,26,04,41,14.60
2015,06,26,04,42,14.60
2015,06,26,04,43,14.60
2015,06,26,04,44,14.60
2015,06,26,04,45,14.60
2015,06,26,04,46,14.60
2015,06,26,04,47,14.60
2015,06,26,04,48,14.60
2015,06,26,04,49,14.50
2015,06,26,04,50,14.50
2015,06,26,04,51,14.50
2015,06,26,04,52,14.40
2015,06,26,04,53,14.40
2015,06,26,04,54,14.40
2015,06,26,04,55,14.40
2015,06,26,04,56,14.40
2015,06,26,04,57,14.40
2015,06,26,04,58,14.40
2015,06,26,04,59,14.40
2015,06,26,05,00,14.30
2015,06,26,05,01,14.30
2015,06,26,05,02,14.30
2015,06,26,05,03,14.30
2015,06,26,05,04,14.30
2015,06,26,05,05,14.30
2015,06,26,05,06,14.30
2015,06,26,05,07,14.30
2015,06,26,05,08,14.30
2015,06,26,05,09,14.30
2015,06,26,05,10,14.30
2015,06,26,05,11,14.20
2015,06,26,05,12,14.20
2015,06,26,05,13,14.20
2015,06,26,05,14,14.20
2015,06,26,05,15,14.20
2015,06,26,05,16,14.20
2015,06,26,05,17,14.20
2015,06,26,05,18,14.20
2015,06,26,05,19,14.20
2015,06,26,05,20,14.20
2015,06,26,05,21,14.20
2015,06,26,05,22,14.20
2015,06,26,05,23,14.20
2015,06,26,05,24,14.20
2015,06,26,05,25,14.20
2015,06,26,05,26,14.20
2015,06,26,05,27,14.20
2015,06,26,05,28,14.20
2015,06,26,05,29,14.10
2015,06,26,05,30,14.10
2015,06,26,05,31,14.10
2015,06,26,05,32,14.10
2015,06,26,05,33,14.10
2015,06,26,05,34,14.10
2015,06,26,05,35,14.10
2015,06,26,05,36,14.10
2015,06,26,05,37,14.10
2015,06,26,05,38,14.10
2015,06,26,05,39,14.10
2015,06,26,05,40,14.10
2015,06,26,05,41,14.10
2015,06,26,05,42,14.10
2015,06,26,05,43,14.10
2015,06,26,05,44,14.00
2015,06,26,05,45,14.00
2015,06,26,05,46,14.00
2015,06,26,05,47,14.00
2015,06,26,05,48,13.90
2015,06,26,05,49,13.90
2015,06,26,05,50,13.90
2015,06,26,05,51,13.90
2015,06,26,05,52,13.90
2015,06,26,05,53,13.90
2015,06,26,05,54,13.90
2015,06,26,05,55,13.90
2015,06,26,05,56,13.90
2015,06,26,05,57,13.90
2015,06,26,05,58,13.90
2015,06,26,05,59,13.90
2015,06,26,06,00,13.90
2015,06,26,06,01,13.90
2015,06,26,06,02,13.90
2015,06,26,06,03,13.90
2015,06,26,06,04,13.90
2015,06,26,06,05,14.00
2015,06,26,06,06,14.00
2015,06,26,06,07,14.00
2015,06,26,06,10,14.10
2015,06,26,06,11,14.10
2015,06,26,06,12,14.10
2015,06,26,06,13,14.10
2015,06,26,06,14,14.10
2015,06,26,06,15,14.20
2015,06,26,06,16,14.20
2015,06,26,06,17,14.20
2015,06,26,06,18,14.30
2015,06,26,06,19,14.30
2015,06,26,06,20,14.30
2015,06,26,06,21,14.30
2015,06,26,06,22,14.40
2015,06,26,06,23,14.40
2015,06,26,06,24,14.40
2015,06,26,06,25,14.50
2015,06,26,06,26,14.60
2015,06,26,06,27,14.60
2015,06,26,06,28,14.60
2015,06,26,06,29,14.60
2015,06,26,06,30,14.70
2015,06,26,06,31,14.70
2015,06,26,06,32,14.70
2015,06,26,06,33,14.80
2015,06,26,06,34,14.80
2015,06,26,06,35,14.80
2015,06,26,06,36,14.90
2015,06,26,06,37,14.90
2015,06,26,06,38,14.90
2015,06,26,06,39,15.00
2015,06,26,06,40,15.00
2015,06,26,06,41,15.10
2015,06,26,06,42,15.10
2015,06,26,06,43,15.20
2015,06,26,06,44,15.20
2015,06,26,06,45,15.20
2015,06,26,06,46,15.30
2015,06,26,06,47,15.30
2015,06,26,06,48,15.30
2015,06,26,06,49,15.40
2015,06,26,06,50,15.50
2015,06,26,06,51,15.60
2015,06,26,06,52,15.60
2015,06,26,06,53,15.70
2015,06,26,06,54,15.70
2015,06,26,06,55,15.80
2015,06,26,06,56,15.80
2015,06,26,06,57,15.80
2015,06,26,06,58,15.90
2015,06,26,06,59,15.90
2015,06,26,07,00,15.90
2015,06,26,07,01,15.90
2015,06,26,07,02,16.00
2015,06,26,07,03,16.00
2015,06,26,07,04,16.10
2015,06,26,07,05,16.10
2015,06,26,07,08,16.10
2015,06,26,07,09,16.20
2015,06,26,07,10,16.20
2015,06,26,07,11,16.20
2015,06,26,07,12,16.30
2015,06,26,07,13,16.30
2015,06,26,07,14,16.30
2015,06,26,07,15,16.30
2015,06,26,07,16,16.40
2015,06,26,07,17,16.40
2015,06,26,07,18,16.40
2015,06,26,07,19,16.40
2015,06,26,07,20,16.40
2015,06,26,07,21,16.50
2015,06,26,07,22,16.50
2015,06,26,07,23,16.60
2015,06,26,07,24,16.60
2015,06,26,07,25,16.70
2015,06,26,07,26,16.70
2015,06,26,07,27,16.80
2015,06,26,07,28,16.80
2015,06,26,07,29,16.90
2015,06,26,07,30,16.90
2015,06,26,07,31,16.90
2015,06,26,07,32,16.90
2015,06,26,07,33,17.00
2015,06,26,07,34,17.10
2015,06,26,07,35,17.10
2015,06,26,07,36,17.20
2015,06,26,07,37,17.30
2015,06,26,07,38,17.30
2015,06,26,07,39,17.40
2015,06,26,07,40,17.40
2015,06,26,07,41,17.50
2015,06,26,07,42,17.50
2015,06,26,07,43,17.60
2015,06,26,07,44,17.60
2015,06,26,07,45,17.60
2015,06,26,07,46,17.70
2015,06,26,07,47,17.80
2015,06,26,07,48,17.80
2015,06,26,07,49,17.90
2015,06,26,07,50,17.90
2015,06,26,07,51,18.10
2015,06,26,07,52,18.10
2015,06,26,07,53,18.20
2015,06,26,07,54,18.20
2015,06,26,07,55,18.30
2015,06,26,07,56,18.30
2015,06,26,07,57,18.40
2015,06,26,07,58,18.40
2015,06,26,07,59,18.40
2015,06,26,08,00,18.40
2015,06,26,08,01,18.50
2015,06,26,08,03,18.60
2015,06,26,08,04,18.70
2015,06,26,08,05,18.70
2015,06,26,08,06,18.80
2015,06,26,08,07,18.80
2015,06,26,08,08,18.90
2015,06,26,08,09,18.90
2015,06,26,08,10,18.90
2015,06,26,08,11,18.90
2015,06,26,08,12,18.90
2015,06,26,08,13,18.90
2015,06,26,08,14,19.00
2015,06,26,08,15,19.00
2015,06,26,08,16,19.10
2015,06,26,08,17,19.10
2015,06,26,08,18,19.20
2015,06,26,08,19,19.30
2015,06,26,08,20,19.30
2015,06,26,08,21,19.40
2015,06,26,08,22,19.60
2015,06,26,08,23,19.60
2015,06,26,08,24,19.70
2015,06,26,08,25,19.80
2015,06,26,08,26,19.90
2015,06,26,08,28,20.10
2015,06,26,08,29,20.10
2015,06,26,08,30,20.20
2015,06,26,08,31,20.20
2015,06,26,08,32,20.20
2015,06,26,08,33,20.20
2015,06,26,08,34,20.30
2015,06,26,08,35,20.30
2015,06,26,08,37,20.40
2015,06,26,08,38,20.40
2015,06,26,08,39,20.50
2015,06,26,08,40,20.60
2015,06,26,08,41,20.60
2015,06,26,08,42,20.50
2015,06,26,08,43,20.50
2015,06,26,08,44,20.40
2015,06,26,08,45,20.40
2015,06,26,08,46,20.40
2015,06,26,08,47,20.30
2015,06,26,08,48,20.30
2015,06,26,08,49,20.30
2015,06,26,08,50,20.30
2015,06,26,08,51,20.30
2015,06,26,08,52,20.30
2015,06,26,08,55,20.30
2015,06,26,08,56,20.30
2015,06,26,08,57,20.30
2015,06,26,08,58,20.30
2015,06,26,08,59,20.40
2015,06,26,09,00,20.40
2015,06,26,09,01,20.40
2015,06,26,09,02,20.40
2015,06,26,09,03,20.40
2015,06,26,09,04,20.40
2015,06,26,09,05,20.60
2015,06,26,09,06,20.60
2015,06,26,09,07,20.70
2015,06,26,09,08,20.70
2015,06,26,09,09,20.80
2015,06,26,09,10,20.90
2015,06,26,09,11,20.90
2015,06,26,09,12,20.90
2015,06,26,09,13,21.00
2015,06,26,09,14,21.10
2015,06,26,09,15,21.20
2015,06,26,09,16,21.20
2015,06,26,09,17,21.30
2015,06,26,09,18,21.30
2015,06,26,09,19,21.30
2015,06,26,09,20,21.40
2015,06,26,09,21,21.40
2015,06,26,09,22,21.40
2015,06,26,09,23,21.40
2015,06,26,09,24,21.50
2015,06,26,09,25,21.60
2015,06,26,09,26,21.60
2015,06,26,09,27,21.70
2015,06,26,09,28,21.70
2015,06,26,09,29,21.80
2015,06,26,09,30,21.90
2015,06,26,09,32,22.00
2015,06,26,09,33,22.10
2015,06,26,09,34,22.10
2015,06,26,09,35,22.20
2015,06,26,09,36,22.20
2015,06,26,09,37,22.30
2015,06,26,09,38,22.30
2015,06,26,09,39,22.40
2015,06,26,09,40,22.40
2015,06,26,09,41,22.60
2015,06,26,09,42,22.60
2015,06,26,09,43,22.70
2015,06,26,09,44,22.70
2015,06,26,09,45,22.80
2015,06,26,09,46,22.80
2015,06,26,09,47,22.90
2015,06,26,09,48,23.00
2015,06,26,09,49,23.10
2015,06,26,09,50,23.20
2015,06,26,09,51,23.20
2015,06,26,09,52,23.20
2015,06,26,09,53,23.30
2015,06,26,09,54,23.30
2015,06,26,09,55,23.30
2015,06,26,09,56,23.40
2015,06,26,09,57,23.40
2015,06,26,09,58,23.50
2015,06,26,09,59,23.60
2015,06,26,10,00,23.60
2015,06,26,10,01,23.70
2015,06,26,10,03,23.80
2015,06,26,10,04,23.90
2015,06,26,10,05,24.00
2015,06,26,10,06,24.10
2015,06,26,10,07,24.10
2015,06,26,10,08,24.10
2015,06,26,10,09,24.10
2015,06,26,10,10,24.10
2015,06,26,10,11,24.10
2015,06,26,10,12,24.10
2015,06,26,10,13,24.10
2015,06,26,10,14,24.10
2015,06,26,10,15,24.10
2015,06,26,10,16,24.10
2015,06,26,10,17,24.10
2015,06,26,10,18,24.10
2015,06,26,10,19,24.10
2015,06,26,10,20,24.10
2015,06,26,10,21,24.10
2015,06,26,10,22,24.10
2015,06,26,10,23,24.10
2015,06,26,10,24,24.10
2015,06,26,10,25,24.10
2015,06,26,10,26,24.20
2015,06,26,10,27,24.20
2015,06,26,10,28,24.20
2015,06,26,10,29,24.20
2015,06,26,10,30,24.20
2015,06,26,10,31,24.30
2015,06,26,10,32,24.40
2015,06,26,10,33,24.40
2015,06,26,10,34,24.60
2015,06,26,10,35,24.60
2015,06,26,10,36,24.70
2015,06,26,10,37,24.70
2015,06,26,10,38,24.80
2015,06,26,10,39,24.80
2015,06,26,10,41,24.90
2015,06,26,10,42,24.90
2015,06,26,10,43,24.90
2015,06,26,10,44,24.90
2015,06,26,10,45,24.80
2015,06,26,10,46,24.80
2015,06,26,10,47,24.80
2015,06,26,10,48,24.90
2015,06,26,10,49,24.90
2015,06,26,10,50,24.90
2015,06,26,10,51,24.90
2015,06,26,10,52,25.00
2015,06,26,10,53,25.10
2015,06,26,10,54,25.10
2015,06,26,10,55,25.20
2015,06,26,10,56,25.30
2015,06,26,10,57,25.30
2015,06,26,10,58,25.30
2015,06,26,10,59,25.30
2015,06,26,11,00,25.30
2015,06,26,11,01,25.30
2015,06,26,11,02,25.40
2015,06,26,11,03,25.40
2015,06,26,11,04,25.40
2015,06,26,11,05,25.40
2015,06,26,11,06,25.50
2015,06,26,11,07,25.60
2015,06,26,11,08,25.60
2015,06,26,11,09,25.70
2015,06,26,11,10,25.80
2015,06,26,11,11,25.80
2015,06,26,11,12,26.00
2015,06,26,11,13,26.20
2015,06,26,11,14,26.20
2015,06,26,11,15,26.30
2015,06,26,11,16,26.40
2015,06,26,11,17,26.60
2015,06,26,11,18,26.70
2015,06,26,11,19,26.80
2015,06,26,11,20,26.80
2015,06,26,11,21,26.90
2015,06,26,11,22,27.00
2015,06,26,11,23,27.10
2015,06,26,11,24,27.10
2015,06,26,11,25,27.20
2015,06,26,11,26,27.20
2015,06,26,11,27,27.30
2015,06,26,11,28,27.30
2015,06,26,11,29,27.40
2015,06,26,11,30,27.40
2015,06,26,11,31,27.40
2015,06,26,11,32,27.50
2015,06,26,11,33,27.60
2015,06,26,11,35,27.70
2015,06,26,11,36,27.80
2015,06,26,11,37,27.90
2015,06,26,11,38,27.90
2015,06,26,11,39,28.00
2015,06,26,11,40,28.10
2015,06,26,11,41,28.20
2015,06,26,11,42,28.20
2015,06,26,11,43,28.30
2015,06,26,11,44,28.40
2015,06,26,11,45,28.50
2015,06,26,11,46,28.50
2015,06,26,11,47,28.40
2015,06,26,11,48,28.40
2015,06,26,11,49,28.40
2015,06,26,11,50,28.40
2015,06,26,11,51,28.40
2015,06,26,11,52,28.40
2015,06,26,11,53,28.40
2015,06,26,11,54,28.40
2015,06,26,11,55,28.40
2015,06,26,11,56,28.40
2015,06,26,11,57,28.40
2015,06,26,11,58,28.40
2015,06,26,11,59,28.40
2015,06,26,12,00,28.60
2015,06,26,12,01,28.60
2015,06,26,12,02,28.60
2015,06,26,12,03,28.70
2015,06,26,12,04,28.80
2015,06,26,12,05,28.90
2015,06,26,12,06,29.00
2015,06,26,12,07,29.10
2015,06,26,12,08,29.30
2015,06,26,12,09,29.30
2015,06,26,12,10,29.40
2015,06,26,12,11,29.60
2015,06,26,12,12,29.60
2015,06,26,12,13,29.60
2015,06,26,12,14,29.70
2015,06,26,12,15,29.70
2015,06,26,12,16,29.70
2015,06,26,12,17,29.80
2015,06,26,12,18,29.80
2015,06,26,12,19,29.80
2015,06,26,12,20,29.80
2015,06,26,12,21,29.80
2015,06,26,12,22,29.80
2015,06,26,12,23,29.80
2015,06,26,12,24,29.70
2015,06,26,12,25,29.70
2015,06,26,12,26,29.70
2015,06,26,12,27,29.70
2015,06,26,12,28,29.70
2015,06,26,12,29,29.70
2015,06,26,12,30,29.60
2015,06,26,12,31,29.60
2015,06,26,12,32,29.70
2015,06,26,12,33,29.70
2015,06,26,12,34,29.70
2015,06,26,12,35,29.70
2015,06,26,12,36,29.70
2015,06,26,12,37,29.70
2015,06,26,12,38,29.80
2015,06,26,12,39,29.90
2015,06,26,12,40,29.90
2015,06,26,12,41,30.00
2015,06,26,12,42,30.00
2015,06,26,12,43,29.90
2015,06,26,12,44,29.90
2015,06,26,12,45,29.80
2015,06,26,12,46,29.80
2015,06,26,12,47,29.80
2015,06,26,12,48,29.80
2015,06,26,12,49,29.80
2015,06,26,12,50,29.90
2015,06,26,12,51,29.90
2015,06,26,12,52,30.00
2015,06,26,12,53,30.10
2015,06,26,12,54,30.00
2015,06,26,12,55,29.90
2015,06,26,12,56,29.90
2015,06,26,12,57,29.90
2015,06,26,12,58,30.00
2015,06,26,12,59,30.00
2015,06,26,13,00,30.00
2015,06,26,13,01,30.00
2015,06,26,13,02,30.00
2015,06,26,13,03,30.00
2015,06,26,13,04,30.00
2015,06,26,13,05,30.00
2015,06,26,13,06,30.10
2015,06,26,13,07,30.10
2015,06,26,13,08,30.10
2015,06,26,13,09,30.20
2015,06,26,13,10,30.20
2015,06,26,13,11,30.30
2015,06,26,13,12,30.30
2015,06,26,13,13,30.30
2015,06,26,13,14,30.30
2015,06,26,13,15,30.30
2015,06,26,13,16,30.40
2015,06,26,13,17,30.40
2015,06,26,13,18,30.50
2015,06,26,13,19,30.50
2015,06,26,13,20,30.40
2015,06,26,13,21,30.40
2015,06,26,13,22,30.40
2015,06,26,13,23,30.40
2015,06,26,13,24,30.50
2015,06,26,13,25,30.50
2015,06,26,13,26,30.50
2015,06,26,13,27,30.40
2015,06,26,13,28,30.40
2015,06,26,13,29,30.40
2015,06,26,13,30,30.40
2015,06,26,13,31,30.40
2015,06,26,13,32,30.30
2015,06,26,13,33,30.40
2015,06,26,13,34,30.40
2015,06,26,13,35,30.50
2015,06,26,13,36,30.60
2015,06,26,13,37,30.60
2015,06,26,13,38,30.70
2015,06,26,13,39,30.80
2015,06,26,13,40,30.80
2015,06,26,13,41,30.90
2015,06,26,13,42,30.90
2015,06,26,13,43,30.90
2015,06,26,13,44,30.90
2015,06,26,13,45,30.90
2015,06,26,13,46,30.90
2015,06,26,13,47,30.80
2015,06,26,13,48,30.80
2015,06,26,13,49,30.80
2015,06,26,13,50,30.90
2015,06,26,13,51,30.90
2015,06,26,13,52,30.90
2015,06,26,13,53,31.00
2015,06,26,13,54,31.10
2015,06,26,13,55,31.20
2015,06,26,13,56,31.30
2015,06,26,13,57,31.50
2015,06,26,13,58,31.60
2015,06,26,13,59,31.80
2015,06,26,14,00,31.90
2015,06,26,14,01,32.10
2015,06,26,14,02,32.20
2015,06,26,14,03,32.20
2015,06,26,14,04,32.30
2015,06,26,14,05,32.30
2015,06,26,14,06,32.30
2015,06,26,14,07,32.30
2015,06,26,14,08,32.30
2015,06,26,14,09,32.30
2015,06,26,14,10,32.30
2015,06,26,14,11,32.30
2015,06,26,14,12,32.30
2015,06,26,14,13,32.30
2015,06,26,14,14,32.30
2015,06,26,14,15,32.20
2015,06,26,14,16,32.20
2015,06,26,14,17,32.10
2015,06,26,14,18,31.90
2015,06,26,14,19,31.80
2015,06,26,14,20,31.80
2015,06,26,14,21,31.70
2015,06,26,14,22,31.60
2015,06,26,14,23,31.60
2015,06,26,14,24,31.50
2015,06,26,14,25,31.40
2015,06,26,14,26,31.30
2015,06,26,14,27,31.30
2015,06,26,14,28,31.30
2015,06,26,14,29,31.30
2015,06,26,14,30,31.30
2015,06,26,14,31,31.30
2015,06,26,14,32,31.40
2015,06,26,14,33,31.40
2015,06,26,14,34,31.50
2015,06,26,14,35,31.60
2015,06,26,14,36,31.70
2015,06,26,14,37,31.70
2015,06,26,14,38,31.80
2015,06,26,14,39,31.80
2015,06,26,14,40,31.90
2015,06,26,14,41,31.90
2015,06,26,14,42,32.00
2015,06,26,14,43,32.10
2015,06,26,14,44,32.20
2015,06,26,14,45,32.30
2015,06,26,14,46,32.30
2015,06,26,14,47,32.30
2015,06,26,14,48,32.30
2015,06,26,14,49,32.40
2015,06,26,14,50,32.40
2015,06,26,14,51,32.50
2015,06,26,14,52,32.50
2015,06,26,14,53,32.60
2015,06,26,14,54,32.70
2015,06,26,14,55,32.70
2015,06,26,14,56,32.80
2015,06,26,14,57,32.80
2015,06,26,14,58,32.90
2015,06,26,14,59,33.00
2015,06,26,15,00,33.10
2015,06,26,15,01,33.10
2015,06,26,15,03,32.90
2015,06,26,15,04,32.80
2015,06,26,15,05,32.60
2015,06,26,15,06,32.40
2015,06,26,15,07,32.30
2015,06,26,15,08,32.20
2015,06,26,15,09,32.10
2015,06,26,15,10,32.00
2015,06,26,15,11,31.90
2015,06,26,15,12,31.90
2015,06,26,15,13,31.80
2015,06,26,15,14,31.80
2015,06,26,15,15,31.90
2015,06,26,15,16,31.90
2015,06,26,15,17,31.90
2015,06,26,15,18,31.90
2015,06,26,15,19,31.90
2015,06,26,15,20,31.90
2015,06,26,15,21,31.90
2015,06,26,15,22,32.00
2015,06,26,15,23,31.90
2015,06,26,15,24,31.90
2015,06,26,15,25,31.90
2015,06,26,15,26,31.90
2015,06,26,15,27,31.90
2015,06,26,15,28,31.90
2015,06,26,15,29,31.90
2015,06,26,15,30,32.00
2015,06,26,15,31,32.10
2015,06,26,15,32,32.10
2015,06,26,15,33,32.10
2015,06,26,15,34,32.10
2015,06,26,15,35,32.20
2015,06,26,15,36,32.20
2015,06,26,15,37,32.10
2015,06,26,15,38,32.10
2015,06,26,15,39,32.10
2015,06,26,15,40,32.00
2015,06,26,15,41,31.90
2015,06,26,15,42,31.90
2015,06,26,15,43,31.90
2015,06,26,15,44,31.90
2015,06,26,15,45,31.90
2015,06,26,15,46,32.10
2015,06,26,15,47,32.10
2015,06,26,15,48,32.10
2015,06,26,15,49,32.20
2015,06,26,15,50,32.30
2015,06,26,15,51,32.30
2015,06,26,15,52,32.20
2015,06,26,15,53,32.30
2015,06,26,15,54,32.20
2015,06,26,15,55,32.20
2015,06,26,15,56,32.20
2015,06,26,15,57,32.20
2015,06,26,15,58,32.20
2015,06,26,15,59,32.20
2015,06,26,16,00,32.30
2015,06,26,16,01,32.30
2015,06,26,16,02,32.30
2015,06,26,16,03,32.30
2015,06,26,16,04,32.30
2015,06,26,16,05,32.30
2015,06,26,16,06,32.30
2015,06,26,16,07,32.30
2015,06,26,16,08,32.30
2015,06,26,16,09,32.30
2015,06,26,16,10,32.30
2015,06,26,16,11,32.30
2015,06,26,16,12,32.20
2015,06,26,16,13,32.20
2015,06,26,16,14,32.20
2015,06,26,16,15,32.10
2015,06,26,16,16,32.10
2015,06,26,16,17,32.10
2015,06,26,16,18,32.20
2015,06,26,16,19,32.20
2015,06,26,16,20,32.10
2015,06,26,16,21,32.10
2015,06,26,16,22,32.00
2015,06,26,16,23,31.90
2015,06,26,16,24,32.00
2015,06,26,16,25,32.00
2015,06,26,16,26,32.10
2015,06,26,16,27,32.10
2015,06,26,16,28,32.10
2015,06,26,16,29,32.10
2015,06,26,16,30,32.10
2015,06,26,16,31,32.10
2015,06,26,16,32,32.10
2015,06,26,16,33,32.10
2015,06,26,16,34,32.10
2015,06,26,16,35,32.10
2015,06,26,16,36,32.10
2015,06,26,16,37,32.20
2015,06,26,16,38,32.20
2015,06,26,16,39,32.20
2015,06,26,16,40,32.20
2015,06,26,16,41,32.30
2015,06,26,16,42,32.30
2015,06,26,16,43,32.20
2015,06,26,16,44,32.20
2015,06,26,16,45,32.20
2015,06,26,16,46,32.10
2015,06,26,16,47,32.10
2015,06,26,16,48,32.10
2015,06,26,16,49,32.00
2015,06,26,16,50,31.90
2015,06,26,16,51,31.80
2015,06,26,16,52,31.80
2015,06,26,16,53,31.70
2015,06,26,16,54,31.70
2015,06,26,16,55,31.60
2015,06,26,16,56,31.60
2015,06,26,16,57,31.40
2015,06,26,16,58,31.30
2015,06,26,16,59,31.30
2015,06,26,17,00,31.20
2015,06,26,17,01,31.20
2015,06,26,17,02,31.10
2015,06,26,17,03,31.10
2015,06,26,17,04,31.00
2015,06,26,17,05,30.90
2015,06,26,17,06,30.90
2015,06,26,17,07,31.00
2015,06,26,17,08,31.10
2015,06,26,17,09,31.10
2015,06,26,17,10,31.10
2015,06,26,17,11,31.10
2015,06,26,17,12,31.10
2015,06,26,17,13,31.10
2015,06,26,17,14,31.10
2015,06,26,17,15,31.10
2015,06,26,17,16,31.10
2015,06,26,17,17,31.10
2015,06,26,17,18,31.10
2015,06,26,17,19,31.00
2015,06,26,17,20,30.90
2015,06,26,17,21,30.90
2015,06,26,17,22,30.80
2015,06,26,17,23,30.80
2015,06,26,17,24,30.80
2015,06,26,17,25,30.80
2015,06,26,17,26,30.70
2015,06,26,17,27,30.70
2015,06,26,17,28,30.70
2015,06,26,17,29,30.70
2015,06,26,17,30,30.70
2015,06,26,17,31,30.70
2015,06,26,17,32,30.70
2015,06,26,17,33,30.70
2015,06,26,17,34,30.70
2015,06,26,17,35,30.70
2015,06,26,17,36,30.60
2015,06,26,17,37,30.60
2015,06,26,17,38,30.60
2015,06,26,17,39,30.60
2015,06,26,17,40,30.60
2015,06,26,17,41,30.60
2015,06,26,17,42,30.60
2015,06,26,17,43,30.60
2015,06,26,17,44,30.60
2015,06,26,17,45,30.60
2015,06,26,17,46,30.60